LAOSAT 1

Last updated on Nov. 15, 2019, 4:20 a.m. UTC

1 41034U 15067A   19317.86341258 -.00000328  00000-0  00000+0 0  9992
2 41034   0.0599 100.1408 0001315 107.9211 283.9750  1.00273869 14704
UTC
Height (km)
Latitude
Longitude
Inclination
Orbital Period
UTC large
Height (km)
Speed (km/s)
/
Latitude / Longitude
Inclination (degrees)
Orbital Period (minutes)
Azimuth
Elevation
Range (km)
Doppler Factor
iOS Compass Heading
iOS Angle

Next 30 passes for location: Hong Kong

Rise time Rise Azimuth (degrees) Set time Set Azimuth (degrees) Duration Max altitude (degrees)

No matching passes for this satellites